Simultaneous Nadir Overpasses (SNOs) Predictions

Prediction of SNOs between LANDSAT-8 and NOAA-19 Satellite Orbit:

Table of predicted SNOs for the next 14.0 days since TLE Epoch: 7/16/2016
Index Date (LANDSAT-8) Time (LANDSAT-8) Lat,Lon (LANDSAT-8) SZA (LANDSAT-8 ) Date (NOAA-19) Time (NOAA-19) Lat,Lon (NOAA-19) SZA (NOAA-19 ) Distance(km) Time Diff (sec)
1 07/16/2016 21:34:24 -75.08, 42.11 126.13 07/16/2016 21:33:13 -75.16, 40.78 126.08 38.93 71
2 07/16/2016 22:23:55 74.81,-150.95 53.59 07/16/2016 22:24:12 74.81,-150.94 53.59 0.41 17
3 07/19/2016 03:08:12 74.87, 138.13 54.04 07/19/2016 03:07:15 74.89, 138.12 54.06 2.23 57
4 07/19/2016 03:57:41 -74.80, -54.42 126.03 07/19/2016 03:58:09 -74.80, -54.35 126.02 1.95 28
5 07/21/2016 08:41:58 -74.86,-125.33 125.55 07/21/2016 08:41:12 -74.86,-125.25 125.54 2.62 46
6 07/21/2016 09:31:25 74.78, 42.11 54.38 07/21/2016 09:32:16 74.78, 42.21 54.39 2.92 51
7 07/23/2016 14:15:41 74.89, -28.68 54.94 07/23/2016 14:15:19 74.87, -28.75 54.92 2.51 22
8 07/23/2016 15:05:10 -74.82, 138.78 125.13 07/23/2016 15:06:14 -74.79, 138.76 125.16 3.65 64
9 07/25/2016 19:49:27 -74.87, 67.85 124.60 07/25/2016 19:49:17 -74.85, 67.86 124.62 2.35 10
10 07/25/2016 20:39:04 74.28,-125.97 54.79 07/25/2016 20:40:10 74.30,-123.35 54.87 79.14 66
11 07/28/2016 00:33:38 -75.23, -2.29 123.73 07/28/2016 00:32:28 -75.29, -4.19 123.70 54.11 70
12 07/28/2016 01:23:11 74.84, 164.34 55.88 07/28/2016 01:23:23 74.87, 164.33 55.91 3.29 12
13 07/30/2016 06:07:27 74.94, 93.52 56.50 07/30/2016 06:06:25 74.92, 93.48 56.48 2.12 62
14 07/30/2016 06:56:56 -74.88, -99.01 123.56 07/30/2016 06:57:22 -74.85, -99.06 123.58 3.24 26




NCC Satellite Simultaneous Nadir Overpasses (SNOs) Prediction Service
